Year,Month,Day,Hour,Minute,Value (Times are PST for windgust in km/hr)
2013,09,19,00,00,3.20
2013,09,19,00,01,3.20
2013,09,19,00,02,1.60
2013,09,19,00,03,1.60
2013,09,19,00,04,3.20
2013,09,19,00,05,3.20
2013,09,19,00,06,3.20
2013,09,19,00,07,4.80
2013,09,19,00,08,3.20
2013,09,19,00,09,3.20
2013,09,19,00,10,1.60
2013,09,19,00,11,1.60
2013,09,19,00,12,1.60
2013,09,19,00,13,4.80
2013,09,19,00,14,3.20
2013,09,19,00,15,4.80
2013,09,19,00,16,6.40
2013,09,19,00,17,6.40
2013,09,19,00,18,3.20
2013,09,19,00,19,9.60
2013,09,19,00,20,4.80
2013,09,19,00,21,4.80
2013,09,19,00,22,4.80
2013,09,19,00,23,1.60
2013,09,19,00,25,4.80
2013,09,19,00,26,4.80
2013,09,19,00,27,3.20
2013,09,19,00,28,1.60
2013,09,19,00,29,1.60
2013,09,19,00,30,1.60
2013,09,19,00,33,1.60
2013,09,19,00,34,3.20
2013,09,19,00,35,1.60
2013,09,19,00,36,1.60
2013,09,19,00,37,3.20
2013,09,19,00,38,3.20
2013,09,19,00,40,1.60
2013,09,19,00,41,1.60
2013,09,19,00,42,1.60
2013,09,19,00,43,1.60
2013,09,19,00,44,1.60
2013,09,19,00,45,1.60
2013,09,19,00,48,3.20
2013,09,19,00,49,4.80
2013,09,19,00,50,4.80
2013,09,19,00,51,3.20
2013,09,19,00,52,3.20
2013,09,19,00,53,1.60
2013,09,19,00,54,1.60
2013,09,19,00,55,3.20
2013,09,19,00,56,3.20
2013,09,19,00,59,3.20
2013,09,19,01,00,3.20
2013,09,19,01,01,3.20
2013,09,19,01,02,3.20
2013,09,19,01,03,3.20
2013,09,19,01,04,3.20
2013,09,19,01,05,4.80
2013,09,19,01,06,4.80
2013,09,19,01,07,4.80
2013,09,19,01,08,3.20
2013,09,19,01,10,3.20
2013,09,19,01,11,3.20
2013,09,19,01,12,3.20
2013,09,19,01,13,4.80
2013,09,19,01,14,3.20
2013,09,19,01,15,1.60
2013,09,19,01,16,1.60
2013,09,19,01,17,3.20
2013,09,19,01,18,4.80
2013,09,19,01,19,3.20
2013,09,19,01,20,3.20
2013,09,19,01,21,3.20
2013,09,19,01,22,1.60
2013,09,19,01,24,3.20
2013,09,19,01,25,4.80
2013,09,19,01,26,3.20
2013,09,19,01,27,3.20
2013,09,19,01,28,1.60
2013,09,19,01,29,3.20
2013,09,19,01,30,4.80
2013,09,19,01,31,4.80
2013,09,19,01,32,1.60
2013,09,19,01,33,3.20
2013,09,19,01,34,3.20
2013,09,19,01,35,3.20
2013,09,19,01,36,4.80
2013,09,19,01,37,3.20
2013,09,19,01,38,4.80
2013,09,19,01,39,4.80
2013,09,19,01,40,1.60
2013,09,19,01,41,1.60
2013,09,19,01,43,4.80
2013,09,19,01,44,6.40
2013,09,19,01,45,6.40
2013,09,19,01,46,4.80
2013,09,19,01,47,1.60
2013,09,19,01,48,1.60
2013,09,19,01,49,3.20
2013,09,19,01,50,3.20
2013,09,19,01,51,6.40
2013,09,19,01,52,8.10
2013,09,19,01,53,8.10
2013,09,19,01,54,6.40
2013,09,19,01,55,6.40
2013,09,19,01,56,4.80
2013,09,19,01,57,3.20
2013,09,19,01,58,3.20
2013,09,19,02,00,4.80
2013,09,19,02,01,6.40
2013,09,19,02,02,8.10
2013,09,19,02,03,4.80
2013,09,19,02,04,1.60
2013,09,19,02,05,1.60
2013,09,19,02,06,4.80
2013,09,19,02,07,3.20
2013,09,19,02,08,3.20
2013,09,19,02,09,4.80
2013,09,19,02,10,3.20
2013,09,19,02,11,3.20
2013,09,19,02,12,3.20
2013,09,19,02,13,6.40
2013,09,19,02,14,6.40
2013,09,19,02,15,4.80
2013,09,19,02,16,4.80
2013,09,19,02,17,4.80
2013,09,19,02,18,4.80
2013,09,19,02,19,6.40
2013,09,19,02,20,6.40
2013,09,19,02,21,6.40
2013,09,19,02,22,6.40
2013,09,19,02,23,6.40
2013,09,19,02,24,4.80
2013,09,19,02,25,4.80
2013,09,19,02,26,4.80
2013,09,19,02,27,4.80
2013,09,19,02,28,4.80
2013,09,19,02,29,6.40
2013,09,19,02,30,4.80
2013,09,19,02,31,3.20
2013,09,19,02,32,3.20
2013,09,19,02,33,3.20
2013,09,19,02,34,3.20
2013,09,19,02,35,3.20
2013,09,19,02,36,1.60
2013,09,19,02,37,1.60
2013,09,19,02,38,4.80
2013,09,19,02,39,4.80
2013,09,19,02,40,6.40
2013,09,19,02,41,4.80
2013,09,19,02,42,4.80
2013,09,19,02,43,3.20
2013,09,19,02,44,3.20
2013,09,19,02,45,4.80
2013,09,19,02,46,4.80
2013,09,19,02,47,8.10
2013,09,19,02,48,6.40
2013,09,19,02,49,6.40
2013,09,19,02,50,6.40
2013,09,19,02,51,6.40
2013,09,19,02,52,6.40
2013,09,19,02,53,3.20
2013,09,19,02,55,1.60
2013,09,19,02,56,6.40
2013,09,19,02,57,6.40
2013,09,19,02,58,8.10
2013,09,19,02,59,8.10
2013,09,19,03,00,9.60
2013,09,19,03,01,4.80
2013,09,19,03,02,1.60
2013,09,19,03,03,1.60
2013,09,19,03,04,3.20
2013,09,19,03,05,3.20
2013,09,19,03,06,1.60
2013,09,19,03,07,3.20
2013,09,19,03,08,3.20
2013,09,19,03,09,3.20
2013,09,19,03,10,3.20
2013,09,19,03,11,3.20
2013,09,19,03,12,1.60
2013,09,19,03,13,3.20
2013,09,19,03,14,3.20
2013,09,19,03,15,3.20
2013,09,19,03,16,1.60
2013,09,19,03,17,1.60
2013,09,19,03,18,3.20
2013,09,19,03,19,3.20
2013,09,19,03,20,4.80
2013,09,19,03,21,4.80
2013,09,19,03,22,6.40
2013,09,19,03,23,4.80
2013,09,19,03,24,4.80
2013,09,19,03,25,4.80
2013,09,19,03,26,4.80
2013,09,19,03,27,4.80
2013,09,19,03,28,3.20
2013,09,19,03,29,1.60
2013,09,19,03,30,1.60
2013,09,19,03,31,4.80
2013,09,19,03,32,8.10
2013,09,19,03,33,8.10
2013,09,19,03,34,6.40
2013,09,19,03,35,1.60
2013,09,19,03,36,1.60
2013,09,19,03,38,1.60
2013,09,19,03,39,1.60
2013,09,19,03,40,3.20
2013,09,19,03,44,1.60
2013,09,19,03,45,3.20
2013,09,19,03,46,1.60
2013,09,19,03,47,3.20
2013,09,19,03,48,3.20
2013,09,19,03,49,4.80
2013,09,19,03,50,4.80
2013,09,19,03,51,4.80
2013,09,19,03,52,3.20
2013,09,19,03,53,4.80
2013,09,19,03,54,3.20
2013,09,19,03,55,3.20
2013,09,19,03,56,1.60
2013,09,19,03,57,1.60
2013,09,19,03,58,1.60
2013,09,19,03,59,1.60
2013,09,19,04,02,3.20
2013,09,19,04,03,9.60
2013,09,19,04,04,9.60
2013,09,19,04,05,1.60
2013,09,19,04,06,3.20
2013,09,19,04,07,1.60
2013,09,19,04,08,6.40
2013,09,19,04,09,8.10
2013,09,19,04,10,6.40
2013,09,19,04,11,3.20
2013,09,19,04,12,1.60
2013,09,19,04,13,1.60
2013,09,19,04,14,3.20
2013,09,19,04,15,3.20
2013,09,19,04,16,4.80
2013,09,19,04,17,4.80
2013,09,19,04,18,1.60
2013,09,19,04,19,1.60
2013,09,19,04,20,4.80
2013,09,19,04,21,3.20
2013,09,19,04,22,1.60
2013,09,19,04,23,3.20
2013,09,19,04,24,3.20
2013,09,19,04,25,1.60
2013,09,19,04,26,3.20
2013,09,19,04,27,3.20
2013,09,19,04,29,1.60
2013,09,19,04,30,3.20
2013,09,19,04,31,3.20
2013,09,19,04,32,1.60
2013,09,19,04,33,1.60
2013,09,19,04,34,1.60
2013,09,19,04,35,3.20
2013,09,19,04,36,1.60
2013,09,19,04,38,3.20
2013,09,19,04,39,3.20
2013,09,19,04,40,6.40
2013,09,19,04,41,4.80
2013,09,19,04,42,3.20
2013,09,19,04,43,3.20
2013,09,19,04,44,3.20
2013,09,19,04,45,1.60
2013,09,19,04,46,1.60
2013,09,19,04,47,3.20
2013,09,19,04,48,1.60
2013,09,19,04,51,3.20
2013,09,19,04,52,3.20
2013,09,19,04,53,4.80
2013,09,19,04,54,1.60
2013,09,19,04,55,3.20
2013,09,19,04,56,4.80
2013,09,19,04,57,3.20
2013,09,19,04,58,1.60
2013,09,19,04,59,1.60
2013,09,19,05,00,1.60
2013,09,19,05,01,4.80
2013,09,19,05,02,3.20
2013,09,19,05,03,1.60
2013,09,19,05,04,1.60
2013,09,19,05,05,3.20
2013,09,19,05,06,1.60
2013,09,19,05,07,4.80
2013,09,19,05,08,3.20
2013,09,19,05,09,1.60
2013,09,19,05,10,1.60
2013,09,19,05,11,1.60
2013,09,19,05,12,1.60
2013,09,19,05,13,1.60
2013,09,19,05,14,3.20
2013,09,19,05,15,3.20
2013,09,19,05,16,4.80
2013,09,19,05,17,4.80
2013,09,19,05,18,4.80
2013,09,19,05,19,3.20
2013,09,19,05,20,4.80
2013,09,19,05,21,4.80
2013,09,19,05,22,3.20
2013,09,19,05,23,3.20
2013,09,19,05,24,1.60
2013,09,19,05,27,1.60
2013,09,19,05,28,1.60
2013,09,19,05,29,1.60
2013,09,19,05,30,3.20
2013,09,19,05,31,3.20
2013,09,19,05,32,1.60
2013,09,19,05,33,4.80
2013,09,19,05,34,3.20
2013,09,19,05,35,3.20
2013,09,19,05,36,3.20
2013,09,19,05,38,3.20
2013,09,19,05,39,3.20
2013,09,19,05,40,3.20
2013,09,19,05,41,3.20
2013,09,19,05,42,4.80
2013,09,19,05,43,4.80
2013,09,19,05,44,1.60
2013,09,19,05,46,3.20
2013,09,19,05,47,4.80
2013,09,19,05,48,3.20
2013,09,19,05,49,3.20
2013,09,19,05,50,1.60
2013,09,19,05,51,1.60
2013,09,19,05,52,1.60
2013,09,19,05,53,1.60
2013,09,19,05,54,3.20
2013,09,19,05,55,4.80
2013,09,19,05,56,4.80
2013,09,19,05,57,6.40
2013,09,19,05,58,3.20
2013,09,19,05,59,1.60
2013,09,19,06,01,1.60
2013,09,19,06,02,3.20
2013,09,19,06,03,3.20
2013,09,19,06,04,4.80
2013,09,19,06,05,4.80
2013,09,19,06,06,4.80
2013,09,19,06,07,4.80
2013,09,19,06,08,3.20
2013,09,19,06,09,4.80
2013,09,19,06,10,3.20
2013,09,19,06,11,4.80
2013,09,19,06,12,1.60
2013,09,19,06,14,3.20
2013,09,19,06,15,1.60
2013,09,19,06,16,1.60
2013,09,19,06,17,3.20
2013,09,19,06,18,3.20
2013,09,19,06,19,3.20
2013,09,19,06,23,3.20
2013,09,19,06,24,4.80
2013,09,19,06,25,3.20
2013,09,19,06,26,3.20
2013,09,19,06,27,4.80
2013,09,19,06,28,3.20
2013,09,19,06,29,3.20
2013,09,19,06,30,1.60
2013,09,19,06,31,1.60
2013,09,19,06,32,3.20
2013,09,19,06,33,3.20
2013,09,19,06,34,3.20
2013,09,19,06,36,3.20
2013,09,19,06,37,3.20
2013,09,19,06,38,3.20
2013,09,19,06,39,1.60
2013,09,19,06,40,3.20
2013,09,19,06,41,4.80
2013,09,19,06,42,4.80
2013,09,19,06,43,4.80
2013,09,19,06,44,6.40
2013,09,19,06,45,1.60
2013,09,19,06,49,1.60
2013,09,19,06,53,1.60
2013,09,19,06,54,3.20
2013,09,19,06,55,4.80
2013,09,19,06,56,4.80
2013,09,19,06,57,1.60
2013,09,19,06,59,4.80
2013,09,19,07,00,6.40
2013,09,19,07,01,6.40
2013,09,19,07,02,9.60
2013,09,19,07,03,8.10
2013,09,19,07,04,3.20
2013,09,19,07,05,1.60
2013,09,19,07,06,3.20
2013,09,19,07,07,3.20
2013,09,19,07,08,3.20
2013,09,19,07,09,1.60
2013,09,19,07,10,1.60
2013,09,19,07,11,3.20
2013,09,19,07,12,4.80
2013,09,19,07,13,4.80
2013,09,19,07,14,8.10
2013,09,19,07,15,3.20
2013,09,19,07,16,1.60
2013,09,19,07,17,1.60
2013,09,19,07,18,3.20
2013,09,19,07,19,1.60
2013,09,19,07,23,3.20
2013,09,19,07,24,3.20
2013,09,19,07,25,3.20
2013,09,19,07,26,3.20
2013,09,19,07,27,3.20
2013,09,19,07,29,1.60
2013,09,19,07,30,3.20
2013,09,19,07,31,3.20
2013,09,19,07,32,1.60
2013,09,19,07,33,1.60
2013,09,19,07,34,1.60
2013,09,19,07,35,1.60
2013,09,19,07,36,3.20
2013,09,19,07,37,4.80
2013,09,19,07,38,4.80
2013,09,19,07,39,4.80
2013,09,19,07,40,4.80
2013,09,19,07,41,3.20
2013,09,19,07,42,3.20
2013,09,19,07,43,4.80
2013,09,19,07,44,4.80
2013,09,19,07,45,4.80
2013,09,19,07,46,4.80
2013,09,19,07,47,4.80
2013,09,19,07,48,3.20
2013,09,19,07,49,4.80
2013,09,19,07,50,3.20
2013,09,19,07,51,4.80
2013,09,19,07,52,6.40
2013,09,19,07,53,6.40
2013,09,19,07,54,8.10
2013,09,19,07,55,4.80
2013,09,19,07,56,1.60
2013,09,19,07,57,3.20
2013,09,19,07,58,3.20
2013,09,19,07,59,1.60
2013,09,19,08,02,1.60
2013,09,19,08,03,3.20
2013,09,19,08,04,6.40
2013,09,19,08,05,8.10
2013,09,19,08,06,8.10
2013,09,19,08,07,8.10
2013,09,19,08,08,6.40
2013,09,19,08,09,3.20
2013,09,19,08,10,1.60
2013,09,19,08,14,3.20
2013,09,19,08,15,3.20
2013,09,19,08,16,6.40
2013,09,19,08,17,6.40
2013,09,19,08,18,6.40
2013,09,19,08,19,4.80
2013,09,19,08,20,8.10
2013,09,19,08,21,8.10
2013,09,19,08,22,6.40
2013,09,19,08,23,4.80
2013,09,19,08,24,4.80
2013,09,19,08,25,3.20
2013,09,19,08,26,1.60
2013,09,19,08,27,1.60
2013,09,19,08,28,3.20
2013,09,19,08,29,1.60
2013,09,19,08,31,3.20
2013,09,19,08,32,3.20
2013,09,19,08,33,4.80
2013,09,19,08,34,6.40
2013,09,19,08,35,4.80
2013,09,19,08,36,4.80
2013,09,19,08,37,4.80
2013,09,19,08,38,4.80
2013,09,19,08,39,6.40
2013,09,19,08,40,8.10
2013,09,19,08,41,4.80
2013,09,19,08,42,1.60
2013,09,19,08,43,4.80
2013,09,19,08,44,4.80
2013,09,19,08,45,4.80
2013,09,19,08,46,6.40
2013,09,19,08,47,4.80
2013,09,19,08,48,4.80
2013,09,19,08,49,6.40
2013,09,19,08,50,6.40
2013,09,19,08,51,6.40
2013,09,19,08,52,6.40
2013,09,19,08,53,4.80
2013,09,19,08,54,6.40
2013,09,19,08,55,6.40
2013,09,19,08,56,1.60
2013,09,19,08,57,4.80
2013,09,19,08,58,6.40
2013,09,19,08,59,4.80
2013,09,19,09,00,4.80
2013,09,19,09,01,4.80
2013,09,19,09,02,1.60
2013,09,19,09,03,1.60
2013,09,19,09,04,6.40
2013,09,19,09,05,4.80
2013,09,19,09,06,1.60
2013,09,19,09,07,1.60
2013,09,19,09,08,4.80
2013,09,19,09,09,3.20
2013,09,19,09,10,1.60
2013,09,19,09,11,4.80
2013,09,19,09,12,6.40
2013,09,19,09,13,4.80
2013,09,19,09,14,1.60
2013,09,19,09,15,1.60
2013,09,19,09,17,3.20
2013,09,19,09,18,3.20
2013,09,19,09,19,4.80
2013,09,19,09,20,4.80
2013,09,19,09,21,4.80
2013,09,19,09,22,3.20
2013,09,19,09,23,6.40
2013,09,19,09,24,4.80
2013,09,19,09,25,1.60
2013,09,19,09,26,3.20
2013,09,19,09,27,1.60
2013,09,19,09,28,1.60
2013,09,19,09,29,6.40
2013,09,19,09,30,4.80
2013,09,19,09,31,4.80
2013,09,19,09,32,4.80
2013,09,19,09,33,3.20
2013,09,19,09,34,3.20
2013,09,19,09,35,3.20
2013,09,19,09,36,6.40
2013,09,19,09,37,6.40
2013,09,19,09,38,3.20
2013,09,19,09,39,3.20
2013,09,19,09,40,1.60
2013,09,19,09,42,6.40
2013,09,19,09,43,6.40
2013,09,19,09,44,4.80
2013,09,19,09,45,1.60
2013,09,19,09,47,6.40
2013,09,19,09,48,3.20
2013,09,19,09,49,4.80
2013,09,19,09,50,4.80
2013,09,19,09,51,4.80
2013,09,19,09,52,4.80
2013,09,19,09,53,1.60
2013,09,19,09,54,1.60
2013,09,19,09,55,1.60
2013,09,19,09,56,1.60
2013,09,19,09,57,3.20
2013,09,19,09,58,1.60
2013,09,19,09,59,3.20
2013,09,19,10,00,1.60
2013,09,19,10,01,3.20
2013,09,19,10,02,3.20
2013,09,19,10,03,4.80
2013,09,19,10,04,4.80
2013,09,19,10,07,1.60
2013,09,19,10,08,1.60
2013,09,19,10,13,1.60
2013,09,19,10,14,3.20
2013,09,19,10,15,1.60
2013,09,19,10,16,1.60
2013,09,19,10,17,3.20
2013,09,19,10,18,1.60
2013,09,19,10,19,1.60
2013,09,19,10,20,4.80
2013,09,19,10,21,3.20
2013,09,19,10,22,1.60
2013,09,19,10,23,1.60
2013,09,19,10,24,1.60
2013,09,19,10,25,3.20
2013,09,19,10,26,1.60
2013,09,19,10,27,1.60
2013,09,19,10,29,1.60
2013,09,19,10,30,3.20
2013,09,19,10,31,1.60
2013,09,19,10,32,3.20
2013,09,19,10,33,4.80
2013,09,19,10,34,3.20
2013,09,19,10,35,1.60
2013,09,19,10,36,1.60
2013,09,19,10,37,4.80
2013,09,19,10,38,11.30
2013,09,19,10,39,14.50
2013,09,19,10,40,11.30
2013,09,19,10,41,6.40
2013,09,19,10,42,11.30
2013,09,19,10,43,9.60
2013,09,19,10,44,4.80
2013,09,19,10,45,6.40
2013,09,19,10,46,6.40
2013,09,19,10,47,3.20
2013,09,19,10,48,1.60
2013,09,19,10,49,1.60
2013,09,19,10,50,6.40
2013,09,19,10,51,6.40
2013,09,19,10,52,11.30
2013,09,19,10,53,8.10
2013,09,19,10,54,12.90
2013,09,19,10,55,8.10
2013,09,19,10,56,4.80
2013,09,19,10,57,6.40
2013,09,19,10,58,9.60
2013,09,19,10,59,4.80
2013,09,19,11,00,8.10
2013,09,19,11,01,8.10
2013,09,19,11,02,3.20
2013,09,19,11,03,6.40
2013,09,19,11,04,11.30
2013,09,19,11,05,11.30
2013,09,19,11,06,9.60
2013,09,19,11,07,4.80
2013,09,19,11,08,8.10
2013,09,19,11,09,6.40
2013,09,19,11,10,6.40
2013,09,19,11,11,4.80
2013,09,19,11,12,3.20
2013,09,19,11,13,3.20
2013,09,19,11,14,3.20
2013,09,19,11,15,6.40
2013,09,19,11,16,6.40
2013,09,19,11,17,3.20
2013,09,19,11,18,3.20
2013,09,19,11,19,6.40
2013,09,19,11,20,9.60
2013,09,19,11,21,11.30
2013,09,19,11,22,9.60
2013,09,19,11,23,8.10
2013,09,19,11,24,6.40
2013,09,19,11,25,12.90
2013,09,19,11,26,12.90
2013,09,19,11,27,9.60
2013,09,19,11,28,11.30
2013,09,19,11,29,6.40
2013,09,19,11,30,4.80
2013,09,19,11,31,6.40
2013,09,19,11,32,6.40
2013,09,19,11,33,6.40
2013,09,19,11,34,6.40
2013,09,19,11,35,4.80
2013,09,19,11,36,4.80
2013,09,19,11,37,8.10
2013,09,19,11,38,8.10
2013,09,19,11,39,8.10
2013,09,19,11,40,4.80
2013,09,19,11,41,6.40
2013,09,19,11,42,6.40
2013,09,19,11,43,17.70
2013,09,19,11,44,9.60
2013,09,19,11,45,3.20
2013,09,19,11,46,11.30
2013,09,19,11,47,6.40
2013,09,19,11,48,20.90
2013,09,19,11,49,19.30
2013,09,19,11,50,11.30
2013,09,19,11,51,9.60
2013,09,19,11,52,12.90
2013,09,19,11,53,16.10
2013,09,19,11,54,11.30
2013,09,19,11,55,17.70
2013,09,19,11,56,16.10
2013,09,19,11,57,20.90
2013,09,19,11,58,12.90
2013,09,19,11,59,12.90
2013,09,19,12,00,11.30
2013,09,19,12,01,22.50
2013,09,19,12,02,20.90
2013,09,19,12,03,12.90
2013,09,19,12,04,11.30
2013,09,19,12,05,11.30
2013,09,19,12,06,8.10
2013,09,19,12,07,9.60
2013,09,19,12,08,6.40
2013,09,19,12,09,14.50
2013,09,19,12,10,9.60
2013,09,19,12,11,16.10
2013,09,19,12,12,20.90
2013,09,19,12,13,25.70
2013,09,19,12,14,20.90
2013,09,19,12,15,17.70
2013,09,19,12,16,11.30
2013,09,19,12,17,11.30
2013,09,19,12,18,9.60
2013,09,19,12,19,19.30
2013,09,19,12,20,12.90
2013,09,19,12,21,11.30
2013,09,19,12,22,9.60
2013,09,19,12,23,9.60
2013,09,19,12,24,12.90
2013,09,19,12,25,9.60
2013,09,19,12,26,12.90
2013,09,19,12,27,14.50
2013,09,19,12,28,9.60
2013,09,19,12,29,14.50
2013,09,19,12,30,17.70
2013,09,19,12,31,14.50
2013,09,19,12,32,11.30
2013,09,19,12,33,8.10
2013,09,19,12,34,16.10
2013,09,19,12,35,14.50
2013,09,19,12,36,11.30
2013,09,19,12,37,30.60
2013,09,19,12,38,24.20
2013,09,19,12,39,17.70
2013,09,19,12,40,24.20
2013,09,19,12,41,17.70
2013,09,19,12,42,12.90
2013,09,19,12,43,17.70
2013,09,19,12,44,27.40
2013,09,19,12,45,24.20
2013,09,19,12,46,16.10
2013,09,19,12,47,9.60
2013,09,19,12,48,11.30
2013,09,19,12,49,8.10
2013,09,19,12,50,12.90
2013,09,19,12,51,12.90
2013,09,19,12,52,11.30
2013,09,19,12,53,17.70
2013,09,19,12,54,16.10
2013,09,19,12,55,16.10
2013,09,19,12,56,16.10
2013,09,19,12,57,19.30
2013,09,19,12,58,24.20
2013,09,19,12,59,22.50
2013,09,19,13,00,20.90
2013,09,19,13,01,24.20
2013,09,19,13,02,17.70
2013,09,19,13,03,25.70
2013,09,19,13,04,29.00
2013,09,19,13,05,11.30
2013,09,19,13,06,12.90
2013,09,19,13,07,12.90
2013,09,19,13,08,9.60
2013,09,19,13,09,14.50
2013,09,19,13,10,12.90
2013,09,19,13,11,12.90
2013,09,19,13,12,11.30
2013,09,19,13,13,11.30
2013,09,19,13,14,19.30
2013,09,19,13,15,14.50
2013,09,19,13,16,17.70
2013,09,19,13,17,17.70
2013,09,19,13,18,20.90
2013,09,19,13,19,22.50
2013,09,19,13,20,27.40
2013,09,19,13,21,20.90
2013,09,19,13,22,19.30
2013,09,19,13,23,17.70
2013,09,19,13,24,14.50
2013,09,19,13,25,24.20
2013,09,19,13,26,19.30
2013,09,19,13,27,17.70
2013,09,19,13,28,24.20
2013,09,19,13,29,25.70
2013,09,19,13,30,30.60
2013,09,19,13,31,29.00
2013,09,19,13,32,22.50
2013,09,19,13,33,20.90
2013,09,19,13,34,22.50
2013,09,19,13,35,22.50
2013,09,19,13,36,20.90
2013,09,19,13,37,17.70
2013,09,19,13,38,30.60
2013,09,19,13,39,29.00
2013,09,19,13,40,25.70
2013,09,19,13,41,25.70
2013,09,19,13,42,22.50
2013,09,19,13,43,20.90
2013,09,19,13,44,17.70
2013,09,19,13,45,16.10
2013,09,19,13,46,27.40
2013,09,19,13,47,20.90
2013,09,19,13,48,19.30
2013,09,19,13,49,22.50
2013,09,19,13,50,12.90
2013,09,19,13,51,22.50
2013,09,19,13,52,20.90
2013,09,19,13,53,17.70
2013,09,19,13,54,16.10
2013,09,19,13,55,16.10
2013,09,19,13,56,16.10
2013,09,19,13,57,24.20
2013,09,19,13,58,25.70
2013,09,19,13,59,17.70
2013,09,19,14,00,20.90
2013,09,19,14,01,33.80
2013,09,19,14,02,29.00
2013,09,19,14,03,22.50
2013,09,19,14,04,22.50
2013,09,19,14,05,17.70
2013,09,19,14,06,24.20
2013,09,19,14,07,16.10
2013,09,19,14,08,16.10
2013,09,19,14,09,16.10
2013,09,19,14,10,17.70
2013,09,19,14,11,19.30
2013,09,19,14,12,17.70
2013,09,19,14,13,16.10
2013,09,19,14,14,16.10
2013,09,19,14,15,24.20
2013,09,19,14,16,25.70
2013,09,19,14,17,20.90
2013,09,19,14,18,16.10
2013,09,19,14,19,17.70
2013,09,19,14,20,22.50
2013,09,19,14,21,16.10
2013,09,19,14,22,22.50
2013,09,19,14,23,22.50
2013,09,19,14,24,17.70
2013,09,19,14,25,19.30
2013,09,19,14,26,20.90
2013,09,19,14,27,20.90
2013,09,19,14,28,27.40
2013,09,19,14,29,22.50
2013,09,19,14,30,17.70
2013,09,19,14,31,35.40
2013,09,19,14,32,29.00
2013,09,19,14,33,20.90
2013,09,19,14,34,19.30
2013,09,19,14,35,14.50
2013,09,19,14,36,25.70
2013,09,19,14,37,19.30
2013,09,19,14,38,19.30
2013,09,19,14,39,12.90
2013,09,19,14,40,19.30
2013,09,19,14,41,17.70
2013,09,19,14,42,17.70
2013,09,19,14,43,19.30
2013,09,19,14,44,30.60
2013,09,19,14,45,22.50
2013,09,19,14,46,20.90
2013,09,19,14,47,19.30
2013,09,19,14,48,29.00
2013,09,19,14,49,29.00
2013,09,19,14,50,19.30
2013,09,19,14,51,24.20
2013,09,19,14,52,25.70
2013,09,19,14,53,25.70
2013,09,19,14,54,27.40
2013,09,19,14,55,22.50
2013,09,19,14,56,20.90
2013,09,19,14,57,20.90
2013,09,19,14,58,25.70
2013,09,19,14,59,17.70
2013,09,19,15,00,19.30
2013,09,19,15,01,22.50
2013,09,19,15,02,22.50
2013,09,19,15,03,32.20
2013,09,19,15,04,24.20
2013,09,19,15,05,22.50
2013,09,19,15,06,19.30
2013,09,19,15,07,20.90
2013,09,19,15,08,22.50
2013,09,19,15,09,20.90
2013,09,19,15,10,17.70
2013,09,19,15,11,33.80
2013,09,19,15,12,29.00
2013,09,19,15,13,27.40
2013,09,19,15,14,32.20
2013,09,19,15,15,25.70
2013,09,19,15,16,17.70
2013,09,19,15,17,25.70
2013,09,19,15,18,27.40
2013,09,19,15,19,25.70
2013,09,19,15,20,14.50
2013,09,19,15,21,30.60
2013,09,19,15,22,27.40
2013,09,19,15,23,30.60
2013,09,19,15,24,33.80
2013,09,19,15,25,20.90
2013,09,19,15,26,22.50
2013,09,19,15,27,33.80
2013,09,19,15,28,27.40
2013,09,19,15,29,20.90
2013,09,19,15,30,22.50
2013,09,19,15,31,29.00
2013,09,19,15,32,19.30
2013,09,19,15,33,27.40
2013,09,19,15,34,24.20
2013,09,19,15,35,12.90
2013,09,19,15,36,17.70
2013,09,19,15,37,22.50
2013,09,19,15,38,30.60
2013,09,19,15,39,24.20
2013,09,19,15,40,16.10
2013,09,19,15,41,24.20
2013,09,19,15,42,24.20
2013,09,19,15,43,24.20
2013,09,19,15,44,29.00
2013,09,19,15,45,22.50
2013,09,19,15,46,17.70
2013,09,19,15,47,19.30
2013,09,19,15,48,27.40
2013,09,19,15,49,22.50
2013,09,19,15,50,16.10
2013,09,19,15,51,20.90
2013,09,19,15,52,16.10
2013,09,19,15,53,17.70
2013,09,19,15,54,20.90
2013,09,19,15,55,20.90
2013,09,19,15,56,19.30
2013,09,19,15,57,27.40
2013,09,19,15,58,16.10
2013,09,19,15,59,12.90
2013,09,19,16,00,14.50
2013,09,19,16,01,17.70
2013,09,19,16,02,17.70
2013,09,19,16,03,17.70
2013,09,19,16,04,16.10
2013,09,19,16,05,16.10
2013,09,19,16,06,20.90
2013,09,19,16,07,27.40
2013,09,19,16,08,17.70
2013,09,19,16,09,22.50
2013,09,19,16,10,22.50
2013,09,19,16,11,19.30
2013,09,19,16,12,19.30
2013,09,19,16,13,17.70
2013,09,19,16,14,14.50
2013,09,19,16,15,14.50
2013,09,19,16,16,16.10
2013,09,19,16,17,25.70
2013,09,19,16,18,19.30
2013,09,19,16,19,16.10
2013,09,19,16,20,12.90
2013,09,19,16,21,19.30
2013,09,19,16,22,17.70
2013,09,19,16,23,17.70
2013,09,19,16,24,19.30
2013,09,19,16,25,29.00
2013,09,19,16,26,20.90
2013,09,19,16,27,22.50
2013,09,19,16,28,19.30
2013,09,19,16,29,25.70
2013,09,19,16,30,17.70
2013,09,19,16,31,14.50
2013,09,19,16,32,16.10
2013,09,19,16,33,19.30
2013,09,19,16,34,19.30
2013,09,19,16,35,22.50
2013,09,19,16,36,16.10
2013,09,19,16,37,12.90
2013,09,19,16,38,24.20
2013,09,19,16,39,24.20
2013,09,19,16,40,27.40
2013,09,19,16,41,24.20
2013,09,19,16,42,16.10
2013,09,19,16,43,22.50
2013,09,19,16,44,12.90
2013,09,19,16,45,17.70
2013,09,19,16,46,16.10
2013,09,19,16,47,16.10
2013,09,19,16,48,14.50
2013,09,19,16,49,22.50
2013,09,19,16,50,16.10
2013,09,19,16,51,14.50
2013,09,19,16,52,20.90
2013,09,19,16,53,12.90
2013,09,19,16,54,22.50
2013,09,19,16,55,14.50
2013,09,19,16,56,22.50
2013,09,19,16,57,16.10
2013,09,19,16,58,17.70
2013,09,19,16,59,24.20
2013,09,19,17,00,27.40
2013,09,19,17,01,22.50
2013,09,19,17,02,22.50
2013,09,19,17,03,27.40
2013,09,19,17,04,17.70
2013,09,19,17,05,22.50
2013,09,19,17,06,25.70
2013,09,19,17,07,24.20
2013,09,19,17,08,25.70
2013,09,19,17,09,19.30
2013,09,19,17,10,19.30
2013,09,19,17,11,20.90
2013,09,19,17,12,17.70
2013,09,19,17,13,17.70
2013,09,19,17,14,20.90
2013,09,19,17,15,14.50
2013,09,19,17,16,11.30
2013,09,19,17,17,8.10
2013,09,19,17,18,12.90
2013,09,19,17,19,12.90
2013,09,19,17,20,17.70
2013,09,19,17,21,12.90
2013,09,19,17,22,16.10
2013,09,19,17,23,12.90
2013,09,19,17,24,11.30
2013,09,19,17,25,14.50
2013,09,19,17,26,12.90
2013,09,19,17,27,17.70
2013,09,19,17,28,20.90
2013,09,19,17,29,20.90
2013,09,19,17,30,24.20
2013,09,19,17,31,20.90
2013,09,19,17,32,14.50
2013,09,19,17,33,9.60
2013,09,19,17,34,12.90
2013,09,19,17,35,11.30
2013,09,19,17,36,19.30
2013,09,19,17,37,20.90
2013,09,19,17,38,20.90
2013,09,19,17,39,12.90
2013,09,19,17,40,17.70
2013,09,19,17,41,14.50
2013,09,19,17,42,19.30
2013,09,19,17,43,16.10
2013,09,19,17,44,20.90
2013,09,19,17,45,22.50
2013,09,19,17,46,14.50
2013,09,19,17,47,12.90
2013,09,19,17,48,19.30
2013,09,19,17,49,19.30
2013,09,19,17,50,19.30
2013,09,19,17,51,20.90
2013,09,19,17,52,24.20
2013,09,19,17,53,19.30
2013,09,19,17,54,16.10
2013,09,19,17,55,19.30
2013,09,19,17,56,20.90
2013,09,19,17,57,16.10
2013,09,19,17,58,22.50
2013,09,19,17,59,17.70
2013,09,19,18,00,17.70
2013,09,19,18,01,22.50
2013,09,19,18,02,22.50
2013,09,19,18,03,19.30
2013,09,19,18,04,17.70
2013,09,19,18,05,19.30
2013,09,19,18,06,11.30
2013,09,19,18,07,20.90
2013,09,19,18,08,22.50
2013,09,19,18,09,19.30
2013,09,19,18,10,19.30
2013,09,19,18,11,17.70
2013,09,19,18,12,27.40
2013,09,19,18,13,22.50
2013,09,19,18,14,17.70
2013,09,19,18,15,25.70
2013,09,19,18,16,27.40
2013,09,19,18,17,20.90
2013,09,19,18,18,17.70
2013,09,19,18,19,17.70
2013,09,19,18,20,24.20
2013,09,19,18,21,22.50
2013,09,19,18,22,22.50
2013,09,19,18,23,17.70
2013,09,19,18,24,22.50
2013,09,19,18,25,12.90
2013,09,19,18,26,12.90
2013,09,19,18,27,14.50
2013,09,19,18,28,17.70
2013,09,19,18,29,20.90
2013,09,19,18,30,20.90
2013,09,19,18,31,37.00
2013,09,19,18,32,24.20
2013,09,19,18,33,20.90
2013,09,19,18,34,27.40
2013,09,19,18,35,17.70
2013,09,19,18,36,19.30
2013,09,19,18,37,14.50
2013,09,19,18,38,19.30
2013,09,19,18,39,25.70
2013,09,19,18,40,20.90
2013,09,19,18,41,16.10
2013,09,19,18,42,22.50
2013,09,19,18,43,14.50
2013,09,19,18,44,20.90
2013,09,19,18,45,38.60
2013,09,19,18,46,32.20
2013,09,19,18,47,24.20